{"data":{"norad_id":63070,"intl_designator":"2025-035U","name":"STARLINK-33604","alt_names":[],"object_type":"PAYLOAD","status":"ACTIVE","operator":null,"country":"US","launch_date":"2025-02-21","launch_site_code":"AFETR","launch_vehicle":null,"mission":null,"orbit_class":"UNKNOWN","rcs_meters":null,"size_class":null,"mass_kg":null,"dimensions":null,"purposes":["comms"],"wikipedia_slug":null,"has_3d_model":false,"image_url":null,"decayed_at":null,"tle_current":{"epoch":"2026-09-20T23:44:17.723328Z","epoch_age_seconds":120016,"freshness":"FRESH","line1":"1 63070U 25035U   26263.98909402  .00008971  00000+0  33505-3 0  9994","line2":"2 63070  42.9998 124.5331 0000454 291.1108  68.9695 15.27588110 89584","mean_motion":15.2758811,"eccentricity":4.54e-5,"inclination_deg":42.9998,"raan_deg":124.5331,"arg_perigee_deg":291.1108,"mean_anomaly_deg":68.9695,"bstar":0.00033505,"rev_number":8958,"period_min":94.26624824934,"perigee_km":482.71331514327,"apogee_km":483.33630863579,"semimajor_km":6861.1618118895,"source":"CELESTRAK","updated_at":"2026-09-22T09:00:49.754744Z"}}}